User: anonymous   Login
Location: Unspecified
(0.0000°N, 0.0000°E)
Time: 09:06:15
(UTC+00:00)
Language:

Cosmos 2361 - Orbit

View from above orbital plane
View from above orbital plane
View from above satellite
View from above satellite

Ground track
Ground track

The orbit data is extracted from the following two-line orbital elements,

1 25590U 98076A   18020.92565059 +.00000056 +00000-0 +44224-4 0  9994
2 25590 082.9364 315.0504 0031749 001.9776 040.8687 13.72944097955555
Epoch (UTC): 20 January 2018 22:12:56
Eccentricity: 0.0031749
inclination: 82.9364°
perigee height: 965 km
apogee height: 1012 km
right ascension of ascending node: 315.0504°
argument of perigee: 1.9776°
revolutions per day: 13.72944097
mean anomaly at epoch: 40.8687°
orbit number at epoch: 95555

The dashed part of the orbit path shows where the satellite is in the earth's shadow,  

DLR